Weather History for KBPK - March, 2013

Change the Weather History Date:

Friday, March 15, 2013

  Actual Average (KHRO) Record (KHRO)
Temperature  
Mean Temperature 68 °F 48 °F  
Max Temperature 82 °F 60 °F 81 °F (1942)
Min Temperature 54 °F 37 °F 16 °F (1909)
Degree Days  
Heating Degree Days 0 17  
Month to date heating degree days 282  
Since 1 July heating degree days 3454  
Cooling Degree Days 3 0  
Month to date cooling degree days 0  
Year to date cooling degree days 0  
Growing Degree Days 18 (Base 50)    
Moisture  
Dew Point 40 °F    
Average Humidity 39    
Maximum Humidity 57    
Minimum Humidity 18    
Precipitation  
Precipitation 0.00 in 0.12 in 0.93 in (2002)
Month to date precipitation 1.71  
Year to date precipitation 6.91  
Snow  
Snow 0.00 in 0.10 in 6.00 in (1978)
Month to date snowfall 1.5  
Since 1 July snowfall 10.7  
Snow Depth -    
Sea Level Pressure  
Sea Level Pressure 29.91 in    
Wind  
Wind Speed 6 mph (SW)    
Max Wind Speed 17 mph    
Max Gust Speed 26 mph    
Visibility 9 miles    
Events      
T = Trace of Precipitation, MM = Missing Value Source: NWS Daily Summary

Daily Weather History Graph

Daily Weather History Graph

Search for Another Location

Airport or City:

Trip Planner

Search our weather history database for the weather conditions in past years. The results will help you decide how hot, cold, wet, or windy it might be!

Date:

Astronomy

Mar. 15, 2013 Rise Set
Actual Time 7:20 AM CDT 7:17 PM CDT
Civil Twilight 6:54 AM CDT 7:43 PM CDT
Nautical Twilight 6:24 AM CDT 8:13 PM CDT
Astronomical Twilight 5:54 AM CDT 8:43 PM CDT
Moon 9:18 AM CDT (3/15) 11:23 PM CDT (3/15)
Length of Visible Light 12h 48m
Length of Day
11h 57m
Waxing Crescent, 15% of the Moon is Illuminated
Mar 15
Waxing Crescent
Mar 19
First Quarter
Mar 27
Full
Apr 2
Last Quarter
Apr 10
New

Hourly Weather History & Observations

Time (CDT) Temp. Dew Point Humidity Pressure Visibility Wind Dir Wind Speed Gust Speed Precip Events Conditions
12:53 AM 55.0 °F 37.0 °F 51% 30.09 in 8.0 mi SSW 6.9 mph - N/A   Clear
1:53 AM 55.0 °F 37.0 °F 51% 30.07 in 10.0 mi SSW 5.8 mph - N/A   Clear
2:53 AM 54.0 °F 37.0 °F 53% 30.06 in 10.0 mi South 4.6 mph - N/A   Clear
4:53 AM 54.0 °F 39.0 °F 57% 30.03 in 9.0 mi SW 3.5 mph - N/A   Clear
5:53 AM 55.9 °F 39.9 °F 55% 30.03 in 9.0 mi Calm Calm - N/A   Clear
6:53 AM 55.0 °F 39.9 °F 57% 30.03 in 10.0 mi Calm Calm - N/A   Clear
7:53 AM 55.9 °F 41.0 °F 57% 30.03 in 9.0 mi Calm Calm - N/A   Clear
8:53 AM 60.1 °F 42.1 °F 51% 30.02 in 8.0 mi SW 5.8 mph - N/A   Clear
9:53 AM 64.0 °F 43.0 °F 46% 30.00 in 9.0 mi WSW 5.8 mph - N/A   Clear
10:53 AM 70.0 °F 43.0 °F 38% 29.97 in 9.0 mi SSW 8.1 mph - N/A   Clear
11:53 AM 75.0 °F 43.0 °F 32% 29.94 in 9.0 mi SSW 10.4 mph - N/A   Clear
12:53 PM 80.1 °F 39.0 °F 23% 29.91 in 10.0 mi WSW 9.2 mph 19.6 mph N/A   Clear
1:53 PM 82.0 °F 37.9 °F 21% 29.88 in 10.0 mi SSW 17.3 mph 24.2 mph N/A   Clear
2:53 PM 82.0 °F 35.1 °F 18% 29.84 in 10.0 mi SW 9.2 mph 24.2 mph N/A   Clear
3:53 PM 82.0 °F 34.0 °F 18% 29.81 in 10.0 mi WSW 13.8 mph 26.5 mph N/A   Clear
4:53 PM 80.1 °F 37.0 °F 21% 29.80 in 8.0 mi SW 12.7 mph 23.0 mph N/A   Scattered Clouds
5:53 PM 78.1 °F 39.0 °F 25% 29.78 in 10.0 mi SW 10.4 mph 19.6 mph N/A   Clear
6:53 PM 75.0 °F 39.9 °F 28% 29.78 in 10.0 mi SW 6.9 mph - N/A   Clear
7:53 PM 73.0 °F 39.9 °F 30% 29.79 in 10.0 mi SSW 6.9 mph - N/A   Clear
8:53 PM 71.1 °F 42.1 °F 35% 29.78 in 8.0 mi SSW 8.1 mph - N/A   Clear
9:53 PM 68.0 °F 42.1 °F 39% 29.80 in 7.0 mi SSW 5.8 mph - N/A   Clear
10:53 PM 66.9 °F 42.1 °F 40% 29.79 in 7.0 mi SSW 6.9 mph - N/A   Clear
11:53 PM 64.9 °F 42.1 °F 43% 29.77 in 9.0 mi SSW 6.9 mph - N/A   Clear